Regional Weather Roundup
Issued by NWS

Home | Current Version | Previous Version | Graphics & Text | Print | Product List | Glossary On
Versions: 1 2 3 4 5 6 7 8 9 10 11 12 13 14 15 16 17 18 19 20 21 22 23 24 25 26 27 28 29 30 31 32 33 34 35 36 37 38 39 40 41 42 43 44 45 46 47 48 49 50
000
ASUS45 KABQ 262101
RWRNM
NEW MEXICO REGIONAL WEATHER ROUNDUP
NATIONAL WEATHER SERVICE ALBUQUERQUE NM
300 PM MDT FRI AUG 26 2016

NOTE: "FAIR" MEANS FEW OR NO CLOUDS BELOW 12,000 FEET AGL WITH NO
       SIGNIFICANT WEATHER OR OBSTRUCTIONS TO VISION.

      THIS PRODUCT IS RELEASED AS TWO VERSIONS.  ONE VERSION NEAR
      THE TOP OF THE HOUR CONTAINING PRELIMINARY DATA FROM ALBUQUERQUE
      AND OTHER STATIONS.  A FINAL VERSION WITH ADDITIONAL DATA IS
      ISSUED ABOUT 10 MINUTES AFTER THE HOUR.

NMZ501-503-504-510>518-262200-
NORTHWEST PLATEAU/NORTHCENTRAL MOUNTAINS

CITY           SKY/WX    TMP DP  RH WIND       PRES   REMARKS
FARMINGTON     PTSUNNY   77  36  22 NW12G18   30.16F
LOS ALAMOS     LGT RAIN  60  51  71 E6        30.29S
SANTA FE       CLOUDY    68  50  52 W8        30.22F
TAOS           CLOUDY    66  45  45 N14G20    30.27S
ANGEL FIRE     FAIR      63  43  48 SW5G12    30.33F

$$
NMZ402-403-502-505>509-262200-
WESTCENTRAL MOUNTAINS/SOUTHWEST MOUNTAINS

CITY           SKY/WX    TMP DP  RH WIND       PRES   REMARKS
GALLUP         PTSUNNY   69  43  38 NW5       30.25F
GRANTS         PTSUNNY   72  42  33 N8        30.24F
SILVER CITY    RAIN      69  52  53 E12G25    30.17S

$$
NMZ407-409-411-412-262200-
SOUTHERN DESERTS

CITY           SKY/WX    TMP DP  RH WIND       PRES   REMARKS
DEMING         FAIR      85  51  31 VRB3      30.06F
LAS CRUCES     PTSUNNY   87  50  27 SE8       30.08F
ALAMOGORDO     FAIR      86  48  26 S7        30.06F
T OR C         FAIR      77  50  38 W21G28    30.13F

$$
NMZ519>523-262200-
CENTRAL VALLEYS/CENTRAL HIGHLANDS

CITY           SKY/WX    TMP DP  RH WIND       PRES   REMARKS
ALBUQUERQUE    PTSUNNY   81  46  29 W13       30.15F
DOUBLE EAGLE   PTSUNNY   75  45  33 W8        30.20F
MORIARTY ARPT  CLOUDY    73  45  37 E10       30.23F
CLINES CORNERS PTSUNNY   64  45  49 NW14      30.28R
BELEN          PTSUNNY   79  42  26 S7        30.14F
SOCORRO        FAIR      81  43  25 W5        30.12F

$$
NMZ524>526-539-540-262200-
SOUTHCENTRAL MOUNTAINS

CITY           SKY/WX    TMP DP  RH WIND       PRES   REMARKS
RUIDOSO        NOT AVBL

$$
NMZ527>531-262200-
NORTHEAST HIGHLANDS/NORTHEAST PLAINS

CITY           SKY/WX    TMP DP  RH WIND       PRES   REMARKS
LAS VEGAS      FAIR      67  51  56 SW16      30.24F
RATON          FAIR      71  49  45 S13       30.17F
CLAYTON        FAIR      78  57  48 S18G24    30.09F

$$
NMZ532>537-262200-
EASTCENTRAL PLAINS

CITY           SKY/WX    TMP DP  RH WIND       PRES   REMARKS
TUCUMCARI      FAIR      85  53  33 S12G17    30.05F
CANNON AFB     FAIR      82  57  42 SW13      30.10F
CLOVIS AIRPORT FAIR      82  55  39 S10G17    30.09F

$$
NMZ028-029-538-262200-
SOUTHEAST PLAINS

CITY           SKY/WX    TMP DP  RH WIND       PRES   REMARKS
ROSWELL        FAIR      83  58  42 S9        30.06F
ARTESIA        FAIR      81  63  54 VRB5      30.07F
CARLSBAD       FAIR      81  61  50 W3        30.04F
HOBBS          MOSUNNY   81  59  47 SW3       30.09F


$$




USA.gov is the U.S. government's official web portal to all federal, state and local government web resources and services.